This is the latest recevied weather packets stored in our database for station/object EA5HPA-11. If no packets are shown the sender has not sent any weather packets the latest 10 day(s).
| Time | Temp. | Humidity | Pressure | Rain* | Wind** | Luminosity | Snow |
|---|---|---|---|---|---|---|---|
| 1787643070 | 25.56° C | 54% | 1015 hPa | 0 mm | - | - | - |
| 1787642769 | 25.56° C | 55% | 1015 hPa | 0 mm | - | - | - |
| 1787642468 | 25° C | 55% | 1015 hPa | 0 mm | - | - | - |
| 1787642167 | 25° C | 56% | 1015 hPa | 0 mm | - | - | - |
| 1787641866 | 25° C | 57% | 1015 hPa | 0 mm | - | - | - |
| 1787641566 | 24.44° C | 57% | 1015 hPa | 0 mm | - | - | - |
| 1787641265 | 24.44° C | 57% | 1015 hPa | 0 mm | - | - | - |
| 1787640964 | 23.89° C | 59% | 1015 hPa | 0 mm | - | - | - |
| 1787640663 | 23.89° C | 59% | 1015 hPa | 0 mm | - | - | - |
| 1787640362 | 23.89° C | 57% | 1015 hPa | 0 mm | - | - | - |
| 1787640061 | 23.89° C | 57% | 1015 hPa | 0 mm | - | - | - |
| 1787639760 | 23.33° C | 58% | 1015 hPa | 0 mm | - | - | - |
| 1787639460 | 23.33° C | 58% | 1015 hPa | 0 mm | - | - | - |
| 1787639159 | 23.33° C | 61% | 1015 hPa | 0 mm | - | - | - |
| 1787638858 | 22.78° C | 62% | 1015 hPa | 0 mm | - | - | - |
| 1787638557 | 22.78° C | 62% | 1015 hPa | 0 mm | - | - | - |
| 1787638256 | 22.78° C | 63% | 1015 hPa | 0 mm | - | - | - |
| 1787637955 | 22.78° C | 62% | 1015 hPa | 0 mm | - | - | - |
| 1787637654 | 23.33° C | 58% | 1015 hPa | 0 mm | - | - | - |
| 1787637354 | 23.33° C | 58% | 1015 hPa | 0 mm | - | - | - |
| 1787637053 | 23.33° C | 58% | 1015 hPa | 0 mm | - | - | - |
| 1787636752 | 23.33° C | 58% | 1015 hPa | 0 mm | - | - | - |
| 1787636451 | 23.33° C | 57% | 1015 hPa | 0 mm | - | - | - |
| 1787636150 | 23.33° C | 57% | 1014 hPa | 0 mm | - | - | - |
| 1787635549 | 23.89° C | 57% | 1014 hPa | 0 mm | - | - | - |
* Rain latest hour (hover to see other rain measurements)
** Current wind speed in m/s (hover to see current wind gust speed)